Tracking 22081 objects as of 5-Dec-2020
HD Live streaming from Space Station
objects crossing your sky now

SL-12 R/B(2)

Track SL-12 R/B(2) now!


NORAD ID: 18578
Int'l Code: 1987-096D
Perigee: 35,627.4 km
Apogee: 35,792.0 km
Inclination: 13.6 °
Period: 1,431.8 minutes
Semi major axis: 42080 km
RCS: 2.4753 m2 (large)
Launch date: November 26, 1987
Source: Commonwealth of Independent States (former USSR) (CIS)
Launch site: TYURATAM MISSILE AND SPACE COMPLEX (TTMTR)

Note: This is a ROCKET BODY
aabbcc
Your satellite tracking list
Your tracking list is empty




NASA's NSSDC Master Catalog

Two Line Element Set (TLE):
1 18578U 87096D   20339.61547523  .00000115  00000-0  00000+0 0  9995
2 18578  13.5515 341.8340 0019566 188.7143 164.6771  1.00572306117783
Source of the keplerian elements: AFSPC